When you browse on this site, cookies collect data to enhance your experience and personalize the content and advertising you see.
Visit our Privacy Policy to learn more. By continuing to use the site, you agree to this use of cookies and data.
  • In United Kingdom
  • List of Countries
  • For 7 days
  • Water Temperature
  • Weather Map
  • Weather Widgets
  • user-avatar
    Login

    Hourly Weather Juticalpa

    Today, 4 June, Thursday

    Time Temperature Precipitation Wind Pressure Humidity
    00:00 +22°C° 0 mm 0 mps 724 mmHg 98%
    01:00 +22°C° 0 mm 0 mps 724 mmHg 98%
    02:00 +22°C° 0 mm 0 mps 724 mmHg 98%
    03:00 +22°C° 0 mm 0 mps 723 mmHg 98%
    04:00 +22°C° 0 mm 0 mps 723 mmHg 98%
    05:00 +22°C° 0 mm 0 mps 723 mmHg 97%
    06:00 +24°C° 0 mm 1 mps 723 mmHg 97%
    07:00 +26°C° 0 mm 1 mps 724 mmHg 91%
    08:00 +27°C° 0 mm 1 mps 724 mmHg 86%
    09:00 +28°C° 0 mm 1 mps 724 mmHg 81%
    10:00 +29°C° 0.1 mm 1 mps 724 mmHg 76%
    11:00 +30°C° 0.1 mm 1 mps 724 mmHg 71%
    12:00 +31°C° 0.1 mm 2 mps 723 mmHg 67%
    13:00 +31°C° 1.3 mm 2 mps 723 mmHg 69%
    14:00 +31°C° 1.3 mm 1 mps 723 mmHg 72%
    15:00 +31°C° 1.3 mm 1 mps 722 mmHg 75%
    16:00 +29°C° 1.9 mm 1 mps 722 mmHg 80%
    17:00 +28°C° 1.9 mm 1 mps 722 mmHg 86%
    18:00 +26°C° 1.9 mm 1 mps 723 mmHg 91%
    19:00 +26°C° 0.3 mm 1 mps 723 mmHg 92%
    20:00 +24°C° 0.3 mm 0 mps 724 mmHg 93%
    21:00 +24°C° 0.3 mm 0 mps 724 mmHg 94%
    22:00 +23°C° 0.9 mm 0 mps 724 mmHg 95%
    23:00 +23°C° 0.9 mm 0 mps 724 mmHg 96%

    Tomorrow, 5 June, Friday

    Time Temperature Precipitation Wind Pressure Humidity
    00:00 +25°C° 0.9 mm 1 mps 724 mmHg 97%
    01:00 +25°C° 2.7 mm 1 mps 724 mmHg 97%
    02:00 +25°C° 2.7 mm 1 mps 724 mmHg 98%
    03:00 +24°C° 2.7 mm 1 mps 723 mmHg 98%
    04:00 +24°C° 1.8 mm 1 mps 724 mmHg 98%
    05:00 +24°C° 1.8 mm 1 mps 724 mmHg 98%
    06:00 +24°C° 1.8 mm 1 mps 724 mmHg 98%
    07:00 +25°C° 2 mm 1 mps 725 mmHg 98%
    08:00 +25°C° 2 mm 1 mps 725 mmHg 97%
    09:00 +23°C° 2 mm 0 mps 726 mmHg 96%
    10:00 +26°C° 0.2 mm 1 mps 725 mmHg 93%
    11:00 +26°C° 0.2 mm 1 mps 725 mmHg 89%
    12:00 +27°C° 0.2 mm 1 mps 725 mmHg 85%
    13:00 +27°C° 0.2 mm 1 mps 725 mmHg 86%
    14:00 +25°C° 0.2 mm 0 mps 724 mmHg 86%
    15:00 +25°C° 0.2 mm 0 mps 724 mmHg 87%
    16:00 +25°C° 0.3 mm 0 mps 724 mmHg 89%
    17:00 +24°C° 0.3 mm 0 mps 725 mmHg 92%
    18:00 +23°C° 0.3 mm 0 mps 725 mmHg 94%
    19:00 +23°C° 0.1 mm 0 mps 726 mmHg 94%
    20:00 +23°C° 0.1 mm 0 mps 726 mmHg 94%
    21:00 +23°C° 0.1 mm 0 mps 726 mmHg 94%
    22:00 +23°C° 0 mm 0 mps 726 mmHg 95%
    23:00 +23°C° 0 mm 0 mps 726 mmHg 95%

    Day after tomorrow, 6 June, Saturday

    Time Temperature Precipitation Wind Pressure Humidity
    00:00 +22°C° 0 mm 0 mps 726 mmHg 96%
    01:00 +22°C° 0 mm 0 mps 726 mmHg 96%
    02:00 +22°C° 0 mm 0 mps 725 mmHg 96%
    03:00 +22°C° 0 mm 0 mps 725 mmHg 96%
    04:00 +22°C° 0 mm 0 mps 725 mmHg 96%
    05:00 +22°C° 0 mm 0 mps 725 mmHg 95%
    06:00 +22°C° 0 mm 0 mps 726 mmHg 94%
    07:00 +24°C° 0 mm 0 mps 726 mmHg 88%
    08:00 +27°C° 0 mm 1 mps 727 mmHg 82%
    09:00 +29°C° 0 mm 1 mps 727 mmHg 75%
    10:00 +31°C° 0.1 mm 1 mps 727 mmHg 69%
    11:00 +32°C° 0.1 mm 1 mps 726 mmHg 64%
    12:00 +34°C° 0.1 mm 1 mps 726 mmHg 58%
    13:00 +34°C° 0.5 mm 1 mps 725 mmHg 59%
    14:00 +33°C° 0.5 mm 1 mps 725 mmHg 60%
    15:00 +34°C° 0.5 mm 2 mps 724 mmHg 61%
    16:00 +32°C° 1.4 mm 1 mps 725 mmHg 69%
    17:00 +30°C° 1.4 mm 1 mps 725 mmHg 76%
    18:00 +26°C° 1.4 mm 0 mps 725 mmHg 83%
    19:00 +26°C° 0 mm 0 mps 725 mmHg 85%
    20:00 +25°C° 0 mm 0 mps 726 mmHg 87%
    21:00 +24°C° 0 mm 0 mps 727 mmHg 88%
    22:00 +24°C° 0 mm 0 mps 726 mmHg 89%
    23:00 +24°C° 0 mm 0 mps 726 mmHg 91%

    7 June, Sunday

    Time Temperature Precipitation Wind Pressure Humidity
    00:00 +24°C° 0 mm 0 mps 726 mmHg 92%
    01:00 +24°C° 0 mm 0 mps 726 mmHg 92%
    02:00 +24°C° 0 mm 0 mps 726 mmHg 93%
    03:00 +23°C° 0 mm 0 mps 726 mmHg 94%
    04:00 +24°C° 0 mm 0 mps 726 mmHg 93%
    05:00 +24°C° 0 mm 0 mps 726 mmHg 93%
    06:00 +24°C° 0 mm 0 mps 726 mmHg 93%
    07:00 +25°C° 0 mm 0 mps 726 mmHg 86%
    08:00 +27°C° 0 mm 0 mps 727 mmHg 79%
    09:00 +29°C° 0 mm 0 mps 727 mmHg 72%
    10:00 +32°C° 0 mm 1 mps 727 mmHg 66%
    11:00 +33°C° 0 mm 1 mps 726 mmHg 60%
    12:00 +34°C° 0 mm 1 mps 726 mmHg 55%
    13:00 +34°C° 0 mm 1 mps 725 mmHg 55%
    14:00 +34°C° 0 mm 1 mps 724 mmHg 56%
    15:00 +34°C° 0 mm 1 mps 724 mmHg 57%
    16:00 +32°C° 0.4 mm 1 mps 724 mmHg 64%
    17:00 +31°C° 0.4 mm 1 mps 724 mmHg 70%
    18:00 +30°C° 0.4 mm 1 mps 724 mmHg 77%
    19:00 +29°C° 2 mm 1 mps 725 mmHg 81%
    20:00 +28°C° 2 mm 1 mps 726 mmHg 86%
    21:00 +27°C° 2 mm 1 mps 726 mmHg 91%
    22:00 +26°C° 3.9 mm 1 mps 726 mmHg 92%
    23:00 +26°C° 3.9 mm 1 mps 726 mmHg 94%

    8 June, Monday

    Time Temperature Precipitation Wind Pressure Humidity
    00:00 +26°C° 3.9 mm 1 mps 726 mmHg 95%
    01:00 +26°C° 2.1 mm 1 mps 726 mmHg 95%
    02:00 +26°C° 2.1 mm 1 mps 726 mmHg 95%
    03:00 +26°C° 2.1 mm 1 mps 726 mmHg 95%
    04:00 +26°C° 0.1 mm 1 mps 726 mmHg 95%
    05:00 +24°C° 0.1 mm 0 mps 726 mmHg 94%
    06:00 +24°C° 0.1 mm 0 mps 726 mmHg 93%
    07:00 +25°C° 0 mm 0 mps 727 mmHg 87%
    08:00 +27°C° 0 mm 0 mps 727 mmHg 80%
    09:00 +29°C° 0 mm 0 mps 727 mmHg 73%
    10:00 +32°C° 0 mm 1 mps 727 mmHg 68%
    11:00 +33°C° 0 mm 1 mps 726 mmHg 62%
    12:00 +35°C° 0 mm 1 mps 726 mmHg 56%
    13:00 +35°C° 0.1 mm 1 mps 725 mmHg 56%
    14:00 +35°C° 0.1 mm 1 mps 725 mmHg 56%
    15:00 +35°C° 0.1 mm 1 mps 724 mmHg 56%
    16:00 +33°C° 1.2 mm 1 mps 724 mmHg 64%
    17:00 +31°C° 1.2 mm 1 mps 724 mmHg 72%
    18:00 +30°C° 1.2 mm 1 mps 724 mmHg 81%
    19:00 +29°C° 1.6 mm 1 mps 725 mmHg 84%
    20:00 +28°C° 1.6 mm 1 mps 726 mmHg 87%
    21:00 +27°C° 1.6 mm 1 mps 726 mmHg 91%
    22:00 +26°C° 1.1 mm 1 mps 726 mmHg 93%
    23:00 +26°C° 1.1 mm 1 mps 726 mmHg 95%

    9 June, Tuesday

    Time Temperature Precipitation Wind Pressure Humidity
    00:00 +26°C° 1.1 mm 1 mps 726 mmHg 97%
    01:00 +26°C° 0.2 mm 1 mps 726 mmHg 97%
    02:00 +23°C° 0.2 mm 0 mps 726 mmHg 97%
    03:00 +23°C° 0.2 mm 0 mps 726 mmHg 98%
    04:00 +24°C° 0 mm 0 mps 726 mmHg 97%
    05:00 +24°C° 0 mm 0 mps 726 mmHg 97%
    06:00 +24°C° 0 mm 0 mps 726 mmHg 96%
    07:00 +25°C° 0 mm 0 mps 726 mmHg 90%
    08:00 +27°C° 0 mm 0 mps 727 mmHg 84%
    09:00 +28°C° 0 mm 0 mps 727 mmHg 79%
    10:00 +29°C° 0 mm 0 mps 726 mmHg 73%
    11:00 +33°C° 0 mm 1 mps 726 mmHg 67%
    12:00 +34°C° 0 mm 1 mps 726 mmHg 61%
    13:00 +34°C° 0.2 mm 1 mps 725 mmHg 62%
    14:00 +34°C° 0.2 mm 1 mps 724 mmHg 63%
    15:00 +34°C° 0.2 mm 1 mps 724 mmHg 63%
    16:00 +32°C° 0.3 mm 1 mps 724 mmHg 70%
    17:00 +31°C° 0.3 mm 1 mps 724 mmHg 76%
    18:00 +29°C° 0.3 mm 1 mps 724 mmHg 83%
    19:00 +28°C° 0.1 mm 1 mps 725 mmHg 85%
    20:00 +28°C° 0.1 mm 1 mps 725 mmHg 88%
    21:00 +27°C° 0.1 mm 1 mps 726 mmHg 90%
    22:00 +26°C° 0 mm 1 mps 726 mmHg 92%
    23:00 +26°C° 0 mm 1 mps 726 mmHg 94%
    Show more